GW6424 Weather Reports


time (UTC)temp
F
wind
direction
speed
knots
gust
knots
rain 1hr
in
rain 24hr
in
rain mn
in
humidity
%
barometer
mb
20260504210209 48 121 0.0 0.0 0.00 0.20 0.00 96 1023.0
20260504205947 48 121 0.0 0.0 0.00 0.20 0.00 97 1022.9
20260504205208 48 121 0.0 0.0 0.00 0.20 0.00 96 1022.9
20260504204710 48 121 0.0 0.0 0.00 0.20 0.00 96 1022.8
20260504204207 48 121 0.0 0.0 0.00 0.21 0.00 96 1022.8
20260504203724 48 121 0.0 0.0 0.00 0.21 0.00 96 1022.7
20260504202707 48 121 0.0 0.0 0.00 0.21 0.00 97 1022.6
20260504202207 48 121 0.0 0.0 0.00 0.21 0.00 96 1022.5
20260504201746 47 121 0.0 0.0 0.00 0.21 0.00 96 1022.5
20260504201727 48 121 0.0 0.0 0.00 0.21 0.00 96 1022.5
20260504200707 47 121 0.0 0.0 0.00 0.21 0.00 96 1022.4
20260504200209 47 121 0.0 0.0 0.00 0.21 0.00 96 1022.4
20260504195709 47 121 0.0 0.0 0.00 0.21 0.00 96 1021.8
20260504195206 47 121 0.0 0.0 0.00 0.21 0.00 96 1022.4
20260504194708 47 121 0.0 0.0 0.00 0.21 0.00 96 1022.3
20260504194207 47 121 0.0 0.0 0.00 0.21 0.00 96 1022.3
20260504193707 47 121 0.0 0.0 0.00 0.21 0.00 96 1022.3
20260504193212 47 121 0.0 0.0 0.00 0.21 0.00 96 1022.3
20260504192714 47 121 0.0 0.0 0.00 0.21 0.00 96 1022.2
20260504192206 47 121 0.0 0.0 0.00 0.21 0.00 96 1022.2
20260504191707 48 121 0.0 0.0 0.00 0.21 0.00 96 1022.2
20260504191206 47 121 0.0 0.0 0.00 0.21 0.00 96 1022.0
20260504190708 47 121 0.0 0.0 0.00 0.21 0.00 96 1022.0
20260504190241 47 121 0.0 0.0 0.00 0.21 0.00 96 1022.2
20260504190224 47 121 0.0 0.0 0.00 0.21 0.00 96 1022.0
20260504185456 47 121 0.0 0.0 0.00 0.21 0.00 96 1022.0
20260504184742 47 121 0.0 0.0 0.00 0.21 0.00 96 1021.8
20260504184728 47 121 0.0 0.0 0.00 0.21 0.00 96 1021.9
20260504183958 47 121 0.0 0.0 0.00 0.21 0.00 96 1021.8
20260504183200 47 121 0.0 0.0 0.00 0.22 0.00 96 1021.0
20260504182936 47 121 0.0 0.0 0.00 0.22 0.00 96 1020.9
20260504182133 46 121 0.0 0.0 0.00 0.22 0.00 96 1021.6
20260504182025 46 121 0.0 0.0 0.00 0.22 0.00 96 1021.7
20260504182021 46 121 0.0 0.0 0.00 0.22 0.00 96 1021.7
20260504182015 46 121 0.0 0.0 0.00 0.22 0.00 96 1021.7
20260504180136 47 121 0.0 0.0 0.00 0.23 0.00 96 1021.8
20260504175635 47 121 0.0 0.0 0.00 0.24 0.00 96 1021.8
20260504175133 47 121 0.0 0.0 0.00 0.24 0.00 96 1021.8
20260504174930 47 121 0.0 0.0 0.00 0.24 0.00 96 1021.8
20260504174135 47 121 0.0 0.0 0.00 0.24 0.00 96 1021.8
20260504173635 47 121 0.0 0.0 0.00 0.24 0.00 96 1021.8
20260504173137 47 121 0.0 0.0 0.00 0.24 0.00 96 1021.9
20260504172715 46 121 0.0 0.0 0.00 0.24 0.00 96 1022.0
20260504172657 47 121 0.0 0.0 0.00 0.24 0.00 96 1021.9
20260504171926 47 121 0.0 0.0 0.00 0.24 0.00 96 1022.2
20260504171134 47 121 0.0 0.0 0.00 0.24 0.00 96 1022.0
20260504170914 47 121 0.0 0.0 0.00 0.24 0.00 96 1022.0
20260504170137 48 121 0.0 0.0 0.00 0.24 0.00 96 1022.0
20260504160421 47 121 0.0 0.0 0.00 0.24 0.00 96 1022.2
20260504150607 48 121 0.0 0.0 0.00 0.24 0.00 96 1021.8
20260504150107 48 121 0.0 0.0 0.00 0.24 0.00 96 1021.8
20260504141105 47 121 0.0 0.0 0.00 0.24 0.24 96 1021.6
20260504140607 47 121 0.0 0.0 0.00 0.24 0.24 96 1021.7
20260504140342 47 121 0.0 0.0 0.00 0.24 0.24 96 1021.7
20260504130606 47 121 0.0 0.0 0.00 0.24 0.24 95 1021.6
20260504130113 48 121 0.0 0.0 0.00 0.24 0.24 95 1021.6
20260504110533 49 121 0.0 0.0 0.00 0.24 0.24 94 1021.0
20260504100557 50 121 0.0 0.0 0.00 0.36 0.24 94 1019.6
20260504100544 49 121 0.0 0.0 0.00 0.36 0.24 94 1020.1
20260504082007 54 121 0.0 0.0 0.00 0.38 0.24 93 1018.9
20260504081749 54 121 0.0 0.0 0.00 0.38 0.24 93 1018.7
20260504081015 54 121 0.0 0.0 0.00 0.38 0.24 93 1018.7
20260504080507 54 121 0.0 0.0 0.00 0.38 0.24 93 1018.6
20260504050509 55 107 0.0 0.0 0.02 0.38 0.24 95 1017.1
20260504050250 54 107 0.0 0.0 0.03 0.38 0.24 95 1017.1
20260504045508 55 107 0.0 0.0 0.05 0.38 0.24 95 1017.0
20260504045007 55 107 0.0 0.9 0.05 0.38 0.24 95 1017.0
20260504044508 54 107 0.0 0.9 0.05 0.38 0.24 95 1016.9
20260504044009 55 5 0.0 0.0 0.05 0.38 0.24 95 1016.9
20260504043510 54 5 0.0 0.0 0.04 0.37 0.23 95 1016.8
20260504043011 54 5 0.0 0.0 0.05 0.37 0.22 95 1016.8
20260504042435 55 194 0.0 0.0 0.04 0.36 0.22 95 1016.8
20260504041937 55 194 0.0 0.9 0.04 0.36 0.22 95 1016.8
20260504041437 54 194 0.0 0.9 0.04 0.36 0.22 95 1016.9
20260504040936 54 277 0.0 0.0 0.04 0.36 0.21 94 1016.9
20260504040719 55 277 0.0 0.9 0.04 0.35 0.20 95 1016.9
20260504035934 55 277 0.0 0.9 0.03 0.35 0.20 95 1016.9
20260504035734 55 103 0.0 0.9 0.02 0.33 0.19 95 1016.9
20260504035225 55 154 0.0 0.0 0.03 0.33 0.19 94 1016.8
20260504034436 55 130 0.0 0.9 0.03 0.33 0.19 94 1016.9
20260504033935 55 130 0.0 0.9 0.03 0.33 0.19 94 1016.8
20260504033718 56 132 0.0 0.0 0.04 0.33 0.18 95 1016.8
20260504033218 55 132 0.0 0.0 0.04 0.32 0.18 94 1016.8
20260504032442 55 132 0.9 5.2 0.06 0.32 0.18 94 1016.8
20260504031936 56 97 0.0 5.2 0.11 0.32 0.18 95 1016.8
20260504031513 54 161 0.9 1.7 0.11 0.32 0.18 94 1016.8
20260504031456 55 344 0.9 1.7 0.11 0.32 0.18 95 1016.8
20260504030437 54 111 0.0 0.9 0.10 0.31 0.17 94 1016.8
20260504025934 54 182 0.0 0.9 0.10 0.31 0.17 93 1016.9
20260504025434 55 126 0.0 0.9 0.09 0.31 0.16 94 1017.2
20260504024957 55 155 0.0 0.9 0.09 0.30 0.16 93 1017.2
20260504023936 55 124 0.0 0.9 0.09 0.30 0.16 94 1017.2
20260504023437 54 117 0.0 0.9 0.08 0.29 0.15 93 1017.2
20260504022934 54 100 0.0 2.6 0.07 0.28 0.14 92 1017.2
20260504022435 55 100 0.9 2.6 0.05 0.26 0.10 90 1017.2
20260504021934 56 102 0.9 0.9 0.00 0.21 0.07 90 1017.0
20260504021437 56 184 0.9 1.7 0.00 0.21 0.07 90 1017.0
20260504020935 56 104 0.9 1.7 0.00 0.21 0.07 89 1017.0
20260504020720 56 128 0.9 0.0 0.00 0.21 0.07 89 1017.1
20260504015936 57 128 0.9 2.6 0.00 0.21 0.07 89 1017.0
20260504015437 56 128 0.9 2.6 0.00 0.21 0.07 90 1017.1
20260504015009 56 115 0.9 0.9 0.00 0.21 0.07 89 1017.1
20260504014952 55 150 0.9 1.7 0.00 0.21 0.07 90 1017.1
20260504013941 56 115 0.9 0.9 0.00 0.21 0.07 90 1017.0
20260504013439 56 175 0.9 0.9 0.00 0.21 0.07 92 1017.0
20260504013214 56 91 0.9 0.9 0.00 0.21 0.07 92 1017.1
20260504012434 55 151 0.0 0.9 0.00 0.21 0.07 91 1017.2
20260504012219 55 107 0.9 0.9 0.00 0.21 0.07 91 1017.1
20260504011742 55 188 0.9 1.7 0.00 0.21 0.07 91 1017.1
20260504011736 55 171 0.0 0.9 0.00 0.21 0.07 91 1017.1
20260504010436 55 137 0.9 1.7 0.00 0.21 0.07 92 1017.1
20260504005933 54 96 0.9 0.9 0.00 0.21 0.07 92 1017.0
20260504005435 54 135 0.9 1.7 0.00 0.21 0.07 92 1016.9
20260504004934 54 211 0.9 1.7 0.00 0.21 0.07 93 1016.9
20260504004717 53 166 0.9 0.9 0.00 0.21 0.07 93 1016.8
20260504003938 53 196 0.9 6.1 0.00 0.21 0.07 93 1016.8
20260504003434 53 186 0.9 6.1 0.00 0.22 0.07 93 1016.7
20260504002933 53 86 0.9 0.9 0.00 0.22 0.07 94 1016.7
20260504002433 53 223 0.9 6.1 0.00 0.22 0.07 94 1016.7
20260504001934 53 111 0.9 6.1 0.00 0.22 0.07 94 1016.6
20260504001433 53 114 0.9 0.9 0.00 0.22 0.07 94 1016.7
20260504000935 53 271 0.9 1.7 0.01 0.22 0.07 95 1016.6
20260504000432 52 92 0.9 1.7 0.01 0.22 0.07 95 1016.6
20260503235933 52 101 0.9 3.5 0.01 0.22 0.07 95 1016.6
20260503235438 52 171 0.9 3.5 0.02 0.22 0.07 95 1016.5
20260503235214 52 109 0.9 2.6 0.02 0.22 0.07 95 1016.4
20260503234433 51 147 0.0 0.9 0.02 0.22 0.07 95 1016.5
20260503233934 51 134 0.0 1.7 0.02 0.22 0.07 95 1016.5
20260503233435 51 120 0.9 1.7 0.02 0.22 0.07 95 1016.4
20260503232934 51 90 0.9 1.7 0.02 0.22 0.07 95 1016.3
20260503232711 51 128 0.9 1.7 0.02 0.22 0.07 95 1016.3
20260503231933 51 187 0.9 1.7 0.02 0.22 0.07 95 1016.3
20260503231433 51 210 0.9 1.7 0.02 0.22 0.07 95 1016.3
20260503231222 51 123 0.0 2.6 0.01 0.21 0.06 95 1016.2
20260503230433 51 101 0.0 2.6 0.01 0.21 0.06 95 1016.1
20260503225934 51 90 0.0 0.9 0.01 0.21 0.06 95 1016.1
20260503225432 51 117 0.0 0.9 0.00 0.20 0.06 95 1016.0
20260503224932 51 128 0.0 0.0 0.00 0.20 0.06 95 1016.0
20260503224435 51 98 0.0 0.9 0.00 0.20 0.06 95 1015.9
20260503223934 51 181 0.0 0.9 0.00 0.20 0.06 95 1015.8
20260503223436 51 123 0.0 1.7 0.00 0.20 0.06 95 1015.8
20260503222935 50 275 0.9 1.7 0.00 0.20 0.06 95 1015.8
20260503222434 50 134 0.9 0.9 0.01 0.20 0.06 95 1015.7
20260503221942 50 93 0.9 1.7 0.01 0.20 0.06 95 1015.6
20260503221440 50 120 0.0 1.7 0.01 0.20 0.06 95 1014.5
20260503220934 50 129 0.0 1.7 0.01 0.20 0.06 95 1015.6
20260503220435 50 103 0.0 1.7 0.02 0.20 0.06 95 1015.5
20260503215935 50 217 0.0 0.0 0.02 0.20 0.06 95 1015.5
20260503215435 50 123 0.0 0.9 0.02 0.20 0.06 95 1015.3
20260503214935 50 123 0.0 0.9 0.02 0.20 0.06 95 1015.2
20260503214717 50 163 0.0 0.9 0.03 0.20 0.06 95 1015.1
20260503213934 50 163 0.9 0.9 0.03 0.20 0.06 95 1015.1
20260503213434 50 159 0.9 0.9 0.03 0.20 0.06 95 1015.1
20260503212938 50 171 0.0 0.9 0.03 0.20 0.05 95 1015.1
20260503212436 50 188 0.0 0.9 0.02 0.20 0.05 95 1015.0
20260503211935 50 166 0.0 0.9 0.02 0.20 0.05 94 1014.9
20260503211435 50 175 0.0 0.9 0.02 0.20 0.05 94 1014.9
20260503211220 50 153 0.0 0.9 0.02 0.20 0.04 94 1014.7
20260503210434 50 153 0.0 0.9 0.02 0.19 0.04 94 1014.7